TimeCST,TemperatureF,Dew PointF,Humidity,Sea Level PressureIn,VisibilityMPH,Wind Direction,Wind SpeedMPH,Gust SpeedMPH,PrecipitationIn,Events,Conditions,WindDirDegrees,DateUTC
12:53 AM,48.9,48.0,97,29.81,0.8,SW,4.6,-,N/A,,Overcast,230,2012-12-02 06:53:00
1:00 AM,48.2,48.2,100,29.80,1.0,SSW,4.6,-,N/A,,Overcast,210,2012-12-02 07:00:00
1:21 AM,50.0,48.2,94,29.80,2.0,WSW,5.8,-,N/A,,Overcast,250,2012-12-02 07:21:00
1:34 AM,50.0,48.2,94,29.80,2.0,WSW,5.8,-,N/A,,Overcast,240,2012-12-02 07:34:00
1:53 AM,50.0,48.0,93,29.82,2.5,WSW,6.9,-,N/A,,Overcast,240,2012-12-02 07:53:00
2:15 AM,50.0,48.2,94,29.82,3.0,WSW,5.8,-,N/A,,Overcast,250,2012-12-02 08:15:00
2:53 AM,50.0,46.9,89,29.84,3.0,West,8.1,-,N/A,,Overcast,270,2012-12-02 08:53:00
3:38 AM,48.2,46.4,93,29.82,4.0,West,5.8,-,N/A,,Overcast,270,2012-12-02 09:38:00
3:53 AM,48.9,46.0,90,29.83,4.0,West,4.6,-,N/A,,Overcast,270,2012-12-02 09:53:00
4:53 AM,48.0,46.0,93,29.86,3.0,West,4.6,-,N/A,,Overcast,280,2012-12-02 10:53:00
5:53 AM,46.0,43.0,89,29.88,4.0,WNW,8.1,-,N/A,,Mostly Cloudy,290,2012-12-02 11:53:00
6:42 AM,46.4,42.8,87,29.88,4.0,WNW,6.9,31.1,N/A,,Overcast,290,2012-12-02 12:42:00
6:53 AM,46.0,43.0,89,29.90,4.0,WNW,5.8,-,N/A,,Overcast,300,2012-12-02 12:53:00
7:53 AM,45.0,42.1,90,29.93,3.0,WNW,5.8,-,N/A,,Overcast,290,2012-12-02 13:53:00
8:53 AM,46.0,41.0,83,29.95,3.0,NW,6.9,-,N/A,,Haze,320,2012-12-02 14:53:00
9:53 AM,46.0,39.9,79,29.98,4.0,WNW,6.9,-,N/A,,Haze,300,2012-12-02 15:53:00
10:53 AM,45.0,39.0,80,29.99,4.0,NNW,8.1,-,N/A,,Haze,330,2012-12-02 16:53:00
11:53 AM,45.0,39.0,80,30.00,4.0,NW,8.1,-,N/A,,Haze,320,2012-12-02 17:53:00
12:53 PM,45.0,37.9,76,30.00,5.0,NW,4.6,-,N/A,,Haze,310,2012-12-02 18:53:00
1:53 PM,44.1,37.9,79,30.01,4.0,Calm,Calm,-,N/A,,Haze,0,2012-12-02 19:53:00
2:53 PM,44.1,37.9,79,30.01,4.0,Calm,Calm,-,N/A,,Haze,0,2012-12-02 20:53:00
3:53 PM,43.0,37.9,82,30.04,5.0,WNW,4.6,-,N/A,,Haze,290,2012-12-02 21:53:00
4:53 PM,43.0,37.0,80,30.06,6.0,Calm,Calm,-,N/A,,Haze,0,2012-12-02 22:53:00
5:53 PM,42.1,37.0,82,30.07,6.0,Calm,Calm,-,N/A,,Haze,0,2012-12-02 23:53:00
6:53 PM,42.1,37.0,82,30.07,6.0,Calm,Calm,-,N/A,,Haze,0,2012-12-03 00:53:00
7:53 PM,42.1,37.9,85,30.06,5.0,SE,5.8,-,N/A,,Overcast,130,2012-12-03 01:53:00
8:53 PM,42.1,37.9,85,30.08,4.0,South,8.1,-,N/A,,Overcast,170,2012-12-03 02:53:00
9:53 PM,43.0,37.9,82,30.07,5.0,SSE,9.2,-,N/A,,Haze,160,2012-12-03 03:53:00
10:53 PM,42.1,39.0,89,30.07,5.0,South,5.8,-,N/A,,Overcast,170,2012-12-03 04:53:00
11:16 PM,42.8,39.2,87,30.05,4.0,SSE,5.8,-,N/A,,Overcast,150,2012-12-03 05:16:00
11:53 PM,43.0,39.0,86,30.06,4.0,SSE,9.2,-,N/A,,Overcast,160,2012-12-03 05:53:00